This demonstration page uses our WeatherBlox Daily Observations layout. Learn more.

39.92423, -83.80882

Hourly Observations for December 27, 2018

Temp ( °F °C ) Dew Point ( °F °C ) Humidity (%) Winds ( mph kmh ) Pressure ( in mb ) Visibility ( mi km ) Precip ( " mm )
12:56 am 00:56 Clear 33 0.6 29 -1.7 85 85 ESE 10 17 30.39 1029 10 16.0934 0 0
1:56 am 01:56 Clear 33 0.6 30 -1.1 89 89 E 9 15 30.37 1029 10 16.0934 0 0
2:56 am 02:56 Clear 35 1.7 30 -1.1 82 82 E 12 19 30.35 1028 10 16.0934 0 0
3:56 am 03:56 Clear 34 1.1 30 -1.1 85 85 ESE 14 22 30.33 1027 10 16.0934 0 0
4:56 am 04:56 Clear 34 1.1 30 -1.1 85 85 ESE 14 22 30.31 1026 10 16.0934 0 0
5:56 am 05:56 Clear 34 1.1 30 -1.1 85 85 ESE 14 22 30.3 1026 10 16.0934 0 0
6:56 am 06:56 Clear 34 1.1 30 -1.1 85 85 ESE 12 19 30.29 1026 10 16.0934 0 0
7:56 am 07:56 Mostly Cloudy 35 1.7 30 -1.1 82 82 ESE 12 19 30.28 1026 10 16.0934 0 0
8:56 am 08:56 Sunny 36 2.2 31 -0.6 82 82 SE 16 26 30.27 1025 10 16.0934 0 0
9:56 am 09:56 Mostly Cloudy 36 2.2 31 -0.6 82 82 SE 15 24 30.26 1025 10 16.0934 0 0
10:56 am 10:56 Mostly Cloudy 38 3.3 32 0 79 79 SE 14 22 30.23 1024 10 16.0934 0 0
11:56 am 11:56 Cloudy 41 5 34 1.1 76 76 SE 16 26 30.16 1022 10 16.0934 0 0
12:56 pm 12:56 Cloudy with Light Rain 42 5.6 35 1.7 76 76 ESE 14 22 30.13 1020 10 16.0934 0 0.0254
1:56 pm 13:56 Cloudy with Light Rain 42 5.6 37 2.8 82 82 ESE 13 20 30.1 1019 10 16.0934 0 0.0254
2:56 pm 14:56 Cloudy with Rain 41 5 38 3.3 89 89 ESE 15 24 30.08 1019 9 14.48406 0.05 1.27
3:56 pm 15:56 Cloudy with Light Rain 42 5.6 40 4.4 92 92 SE 16 26 30.06 1018 10 16.0934 0.07 1.778
4:56 pm 16:56 Cloudy 43 6.1 40 4.4 89 89 ESE 16 26 30.02 1017 10 16.0934 0 0.0254
5:56 pm 17:56 Cloudy 43 6.1 41 5 93 93 SE 15 24 30 1016 10 16.0934 0 0
6:56 pm 18:56 Cloudy 44 6.7 42 5.6 93 93 SE 16 26 29.97 1015 10 16.0934 0 0.0254
7:56 pm 19:56 Cloudy with Light Rain 44 6.7 44 6.7 100 100 SE 22 35 29.93 1014 10 16.0934 0.13 3.302
8:56 pm 20:56 Partly Cloudy 47 8.3 45 7.2 93 93 SSE 22 35 29.83 1010 10 16.0934 0.02 0.508
9:56 pm 21:56 Partly Cloudy 50 10 48 8.9 93 93 S 9 15 29.88 1012 10 16.0934 0 0
10:56 pm 22:56 Cloudy 51 10.6 48 8.9 89 89 S 14 22 29.87 1012 10 16.0934 0 0
11:56 pm 23:56 Cloudy 51 10.6 49 9.4 92 92 S 12 19 29.86 1011 10 16.0934 0 0

Powered by AerisWeather